Lapse_Rate
5.7 5.7 5.8 6.0 6.0 6.1 6.1 6.1 6.1 6.1 6.2 6.3 6.5 6.6 6.8 6.8 6.8 6.7 6.8 6.7 6.7 6.7 6.6 6.4 6.1 5.9 5.5 5.2 5.2 4.9 4.4 5.5 5.7 5.4 5.4 5.0 5.3 5.4 5.6 5.3 5.0 4.8 4.5 4.9 4.9
6.1 6.0 6.0 6.0 6.0 6.1 6.1 6.0 6.1 6.2 6.3 6.4 6.5 6.6 6.7 6.8 6.8 6.8 6.7 6.7 6.7 6.6 6.6 6.6 6.3 6.1 5.6 5.3 5.2 4.9 4.8 5.6 5.4 4.8 4.6 5.0 5.0 4.8 5.2 5.0 5.1 4.9 5.0 4.8 4.7
6.3 6.2 6.1 6.1 6.1 6.1 6.0 6.1 6.2 6.3 6.4 6.4 6.5 6.6 6.6 6.6 6.6 6.8 6.4 6.4 6.5 6.6 6.6 6.5 6.3 6.0 5.1 5.3 5.3 5.0 5.0 5.2 5.2 5.2 5.1 5.0 5.1 5.2 5.1 4.4 4.4 4.7 5.0 5.0 4.9
6.2 6.3 6.2 6.1 6.1 6.1 6.1 6.1 6.2 6.3 6.4 6.5 6.6 6.5 6.4 6.5 5.6 6.4 6.3 6.3 6.3 6.4 6.4 6.5 6.4 6.0 5.3 5.6 5.2 5.6 5.5 5.5 5.3 5.7 5.4 5.2 5.1 5.3 5.1 4.3 4.0 4.4 5.0 5.2 4.9
5.9 6.2 6.3 6.3 6.2 6.1 6.1 6.2 6.2 6.3 6.5 6.5 6.5 6.3 6.2 6.2 6.4 6.3 6.2 6.2 6.2 6.2 6.3 6.4 6.3 5.7 5.5 4.8 5.6 5.5 4.9 5.8 5.7 5.7 5.5 5.5 5.4 5.2 5.2 4.7 4.9 5.1 5.0 5.0 5.0
6.0 5.8 6.3 6.4 6.4 6.2 6.2 6.3 6.3 6.3 6.3 6.4 6.4 6.2 6.1 6.0 6.2 6.2 6.1 6.1 6.1 6.1 6.1 6.2 6.1 5.9 5.0 5.5 5.4 5.2 5.5 5.6 5.7 5.5 5.5 5.4 5.3 5.4 5.4 5.1 5.3 5.1 4.9 4.9 4.9
5.9 6.0 5.8 6.3 6.4 6.4 6.3 6.2 6.2 6.3 6.4 6.4 6.3 6.1 6.1 6.0 6.1 6.1 6.1 6.0 6.0 5.9 5.9 5.9 5.8 5.6 5.7 5.7 5.8 5.5 5.3 5.5 5.5 5.4 5.0 5.3 5.3 5.9 4.8 5.1 5.1 5.1 5.0 5.0 4.9
6.2 6.1 6.2 5.9 6.2 6.3 6.5 6.3 6.2 6.3 6.3 6.3 6.2 6.1 5.9 6.0 6.0 5.9 6.0 6.0 5.9 5.7 5.7 5.7 5.6 5.5 5.5 5.6 5.5 5.2 5.0 4.9 4.6 5.1 5.0 5.1 5.3 5.2 5.2 5.4 5.0 4.9 4.6 4.9 4.9
6.3 6.3 6.1 6.1 5.9 6.2 6.4 6.4 6.3 6.2 6.2 6.1 6.0 5.9 5.6 5.9 5.8 5.8 5.8 5.9 5.8 5.7 5.6 5.5 5.4 5.3 5.2 5.2 4.5 4.6 5.7 5.6 4.6 5.1 4.5 5.0 5.1 4.6 5.5 5.4 4.7 4.0 4.2 3.6 4.6
6.1 6.2 6.3 6.2 6.0 5.9 6.3 6.4 6.2 6.2 6.2 6.1 5.8 5.7 6.0 6.0 5.8 5.7 5.7 5.8 5.6 5.4 5.3 5.3 5.1 4.9 4.7 4.6 6.3 6.3 5.4 5.3 5.5 4.8 5.1 4.8 5.5 4.6 5.5 5.4 5.1 4.4 4.0 3.8 5.0
6.1 6.0 6.3 6.2 6.1 5.9 6.0 6.3 6.2 6.1 6.4 6.0 6.1 5.8 5.8 5.7 5.6 5.6 5.5 5.6 5.4 5.2 4.8 5.0 4.5 4.8 5.1 4.6 4.7 5.4 5.1 5.3 5.3 4.8 5.2 5.2 4.9 4.8 4.6 4.6 4.9 5.2 4.7 4.2 5.0
6.1 5.9 5.9 6.2 6.2 6.0 5.9 6.1 6.1 5.7 5.9 6.3 6.1 5.9 5.8 5.5 5.2 5.2 5.3 5.3 5.3 4.7 4.9 5.0 4.9 5.0 5.2 5.3 5.1 5.2 4.9 5.4 5.0 5.3 5.3 4.9 5.2 4.9 4.6 4.7 5.4 5.4 5.1 4.7 5.0
6.4 6.0 6.0 6.0 6.2 6.2 6.1 6.0 6.0 5.8 5.6 6.1 6.3 5.9 5.7 5.3 4.9 5.0 5.1 5.1 5.2 4.5 4.7 4.7 4.9 5.2 5.1 5.0 4.8 4.7 4.8 5.0 4.7 4.6 5.1 5.2 5.7 5.4 5.4 5.1 5.2 5.0 4.6 4.7 4.8
6.6 6.2 5.9 6.1 6.1 6.2 6.2 6.1 6.0 5.8 5.5 5.7 6.5 5.7 5.5 5.0 4.6 5.0 4.8 5.0 5.1 4.6 4.4 4.4 4.7 4.9 4.7 4.3 4.6 5.1 4.9 4.9 4.6 4.5 5.9 5.0 6.4 5.2 4.9 4.5 4.6 4.6 4.6 4.7 5.0
7.0 6.1 6.0 5.8 5.7 6.1 6.1 6.0 6.0 5.9 5.5 5.8 5.7 5.7 5.4 4.6 4.7 4.8 5.0 4.8 4.5 4.6 5.0 4.5 5.0 4.7 4.0 4.4 4.8 4.6 4.9 4.9 4.7 4.3 4.5 4.8 4.9 5.4 4.7 4.0 4.5 4.7 4.9 5.0 5.2
6.7 6.6 5.8 6.0 5.6 5.9 6.0 5.9 6.0 5.8 5.5 6.0 5.8 5.4 5.3 4.5 4.6 4.9 4.8 4.7 5.1 4.8 4.8 4.3 4.8 4.7 4.1 4.5 4.7 4.9 4.8 4.7 4.2 4.3 4.7 5.0 4.7 5.4 4.8 4.7 4.2 5.2 5.4 5.6 5.4
6.9 6.9 6.4 6.0 5.9 5.5 6.1 5.9 5.7 5.4 6.3 6.2 6.0 5.9 5.2 4.8 4.7 4.9 5.0 5.0 4.8 4.5 4.4 4.2 4.3 4.6 4.5 4.3 4.5 4.5 4.2 5.5 5.3 4.8 5.7 4.1 4.3 6.1 5.2 5.4 4.8 5.7 5.6 5.5 5.3
7.0 6.8 6.6 6.2 5.7 5.7 5.6 6.0 5.2 6.1 6.5 6.6 6.4 5.9 5.0 4.6 4.5 5.2 4.9 4.5 5.1 4.7 4.9 4.8 4.8 4.1 4.6 4.2 4.3 4.0 4.4 5.5 5.7 6.4 6.4 4.6 5.2 5.9 5.5 5.8 5.8 5.7 5.6 5.3 4.9
7.3 6.9 6.8 6.1 6.0 5.9 5.6 5.1 5.1 5.9 6.6 6.6 6.4 5.4 5.0 4.8 4.9 4.8 5.1 4.9 4.9 5.5 5.0 4.9 4.4 4.6 4.6 4.5 4.5 4.0 4.1 4.6 4.5 4.5 5.0 6.3 6.0 5.8 5.9 6.0 5.8 5.6 5.5 4.9 4.7
7.1 6.9 6.8 6.1 6.3 6.0 5.7 5.2 5.2 6.0 6.4 6.9 6.9 6.9 6.0 5.4 5.6 5.6 5.1 5.7 4.9 5.5 5.2 5.0 4.4 4.1 4.5 4.4 4.4 4.3 4.4 4.4 4.3 4.7 5.4 6.7 6.2 6.7 6.1 6.1 5.8 5.6 5.3 4.8 4.5
7.0 6.9 6.8 6.8 6.6 5.9 5.8 5.5 5.9 5.6 6.1 6.5 7.1 6.6 6.4 6.0 6.1 6.0 5.7 5.9 5.5 5.4 5.4 5.2 5.2 3.8 4.2 4.4 4.2 4.2 3.9 4.1 4.3 4.1 5.5 6.2 6.9 6.0 5.6 5.7 5.6 5.3 4.8 4.3 4.0
6.6 6.7 6.6 6.9 6.7 6.3 6.1 6.0 5.9 5.7 6.5 6.4 6.7 6.6 6.6 6.6 6.7 6.4 6.3 6.1 6.2 5.9 5.6 5.4 5.1 4.6 4.2 4.6 4.5 4.0 3.8 4.0 4.5 3.8 3.6 3.8 5.1 5.7 5.4 5.2 5.1 4.6 4.1 3.7 4.0
6.7 7.1 6.8 6.9 7.0 6.2 6.7 6.0 5.8 5.7 6.4 6.7 6.4 6.5 6.7 6.6 6.5 6.5 6.4 6.4 6.2 6.1 5.7 5.6 4.9 4.4 3.9 4.2 4.3 4.1 4.3 4.1 4.1 3.9 4.1 5.2 6.0 5.9 5.1 4.8 4.6 4.7 4.4 4.3 4.3
7.1 6.7 7.0 6.8 6.9 6.4 6.4 6.1 5.7 6.0 6.2 6.7 6.7 6.4 6.5 6.6 6.4 6.4 6.3 6.3 6.2 5.8 5.9 5.4 5.4 5.4 6.1 5.1 5.2 4.9 5.1 4.7 4.0 3.8 4.8 4.7 5.4 5.4 4.9 4.5 4.5 4.7 4.3 4.0 4.1
6.9 6.6 6.8 6.4 6.4 6.3 6.4 6.0 6.2 5.8 5.9 6.2 6.4 6.3 6.5 6.5 6.4 6.3 6.1 6.4 6.0 6.0 5.5 5.3 5.4 5.4 5.3 5.1 5.0 4.8 5.0 4.6 4.4 5.3 4.3 5.7 5.3 5.6 4.9 4.4 4.5 4.9 4.5 4.4 4.4
7.4 7.1 6.6 6.5 6.7 6.7 6.5 6.1 6.4 6.2 5.8 6.1 6.2 6.7 6.6 6.6 6.7 6.9 6.8 6.4 6.6 6.2 5.8 5.3 5.2 5.3 5.3 4.9 4.8 4.8 5.1 4.7 4.4 4.2 3.7 4.2 5.0 5.0 5.3 5.3 5.4 5.1 4.8 4.6 4.5
7.0 7.1 6.8 6.7 6.5 6.4 6.3 6.1 7.0 6.0 6.0 6.0 6.1 6.3 6.6 7.0 6.6 6.5 6.5 6.3 5.9 6.1 6.1 5.5 5.3 5.1 5.1 4.9 4.4 4.3 6.7 6.0 4.8 5.4 5.0 4.3 6.2 5.3 5.4 5.3 5.7 5.1 4.7 4.6 4.5
Wind_Speed
15 15 15 14 13 13 12 11 11 10 10 10 10 9 8 6 7 7 3 7 8 9 9 5 5 5 6 5 5 5 6 9 13 9 7 8 9 5 2 3 3 2 7 10 8
14 15 16 16 15 12 12 11 10 9 8 9 9 10 7 9 12 4 5 7 8 8 9 7 6 7 8 6 5 9 8 7 8 5 3 6 8 8 6 7 7 8 8 8 9
15 14 15 16 16 14 12 10 10 9 9 7 8 8 8 11 10 3 7 8 8 10 3 4 3 8 8 5 7 8 9 4 3 2 0 5 6 3 8 9 8 11 11 9 8
17 17 16 16 16 15 14 11 10 8 7 8 6 6 7 9 1 5 7 7 8 9 5 5 7 9 7 8 5 7 5 4 3 3 3 5 2 6 10 2 1 4 9 9 8
13 17 18 17 16 17 15 13 10 6 4 5 2 3 7 8 1 4 5 3 6 4 6 7 9 9 8 7 5 11 3 3 2 4 4 3 8 10 8 7 5 7 6 7 7
11 10 15 18 16 16 16 14 10 5 4 5 4 5 9 10 3 2 3 2 4 4 3 6 5 3 4 4 9 2 4 6 5 7 5 6 9 3 9 10 11 9 8 8 7
9 8 9 15 18 17 16 15 10 6 5 5 5 7 9 3 1 1 2 2 2 3 2 0 1 6 3 4 1 3 7 7 9 7 4 4 12 13 8 9 15 11 9 8 6
9 7 7 10 16 18 17 16 9 7 6 6 5 9 6 3 1 4 3 4 2 2 3 2 3 2 4 3 5 6 6 8 10 8 5 5 6 8 10 10 14 14 12 10 10
9 8 7 9 13 17 18 17 9 6 7 7 7 8 5 6 6 4 3 2 3 4 3 3 3 1 5 8 5 8 6 9 7 9 4 10 7 9 8 11 13 14 13 8 9
7 11 6 8 12 15 17 13 4 6 8 6 6 5 5 5 6 4 4 4 2 4 5 5 5 7 8 8 3 4 8 5 6 8 10 10 14 7 11 12 11 13 15 10 8
8 8 4 7 10 12 10 4 4 6 11 8 1 2 5 7 6 7 7 6 5 6 8 7 7 8 11 7 5 2 3 5 3 5 5 14 16 14 12 18 15 15 14 10 8
11 6 3 5 8 10 4 5 5 4 8 16 10 5 3 10 6 9 7 7 7 9 5 5 10 5 2 4 4 4 5 7 1 2 5 10 15 13 12 9 9 13 13 9 11
14 9 8 2 7 6 6 5 2 3 6 7 12 13 8 10 8 13 10 5 8 9 10 11 7 5 5 6 6 6 6 4 5 5 14 11 11 7 6 6 5 5 9 12 12
16 12 9 6 3 2 4 4 2 2 5 9 8 7 8 7 7 6 8 3 5 6 4 6 8 6 5 7 5 7 3 1 4 6 3 1 4 10 11 10 9 10 11 12 11
18 13 13 11 2 4 4 1 3 2 5 11 8 4 13 11 11 8 4 5 7 6 4 5 6 7 8 1 3 5 1 3 5 8 9 7 5 7 10 12 11 12 13 12 10
20 15 14 2 3 2 3 2 3 3 8 7 7 10 13 11 7 7 6 3 3 4 4 2 1 3 2 3 0 6 3 4 4 4 3 1 4 8 8 14 15 13 13 12 9
22 18 13 4 3 11 7 4 3 6 3 7 8 11 16 10 10 10 12 10 7 6 8 6 8 4 5 5 3 5 4 2 3 3 2 3 4 7 8 4 13 15 14 12 9
20 22 12 7 14 13 6 5 9 9 16 5 7 12 12 11 10 12 9 11 14 8 3 7 6 11 8 5 2 8 2 3 5 2 3 4 6 2 5 6 5 12 12 12 8
15 6 4 6 15 9 7 8 8 11 8 11 12 12 12 13 3 11 13 9 8 17 9 5 6 5 1 2 4 6 5 3 4 2 4 5 4 9 7 8 9 11 12 12 10
3 4 4 15 14 4 7 18 13 4 4 14 13 14 16 15 12 12 12 4 7 11 2 5 4 5 5 3 1 4 4 2 1 2 4 5 5 3 10 11 11 12 13 12 11
4 4 4 21 4 5 8 11 18 7 7 9 11 11 10 11 14 9 4 3 9 10 6 4 2 6 5 9 9 4 4 1 1 2 3 4 0 5 5 7 11 12 12 11 11
3 5 6 12 4 3 10 13 11 6 10 6 5 9 12 13 12 12 12 2 12 14 9 6 1 4 3 3 3 4 3 7 4 5 1 4 7 3 2 1 3 7 9 9 9
5 3 3 2 6 8 12 13 10 8 8 7 6 7 2 9 4 10 9 4 12 14 11 9 4 4 3 2 3 5 10 4 2 0 9 4 2 4 5 3 2 6 7 8 12
3 5 2 2 2 16 16 12 12 10 4 6 2 4 6 6 2 9 10 5 9 9 2 9 4 4 2 3 4 5 8 15 10 5 7 12 14 7 7 6 7 10 12 13 12
4 2 4 6 11 6 13 11 16 8 7 11 6 12 8 4 8 7 10 7 7 7 7 5 4 3 6 3 4 4 6 13 18 18 10 10 13 14 10 15 15 13 10 10 11
3 3 4 1 10 14 8 12 19 19 10 8 11 17 13 7 9 12 11 8 6 12 6 2 3 3 4 4 8 12 15 17 19 20 22 22 25 20 14 4 5 7 7 10 11
4 4 3 7 8 8 9 17 19 14 12 14 16 9 14 13 1 4 13 9 11 11 6 7 6 4 2 2 4 11 20 23 16 13 18 16 17 14 14 8 8 9 9 11 12
Wind_Direction
350 349 349 349 350 350 347 344 341 338 331 328 331 331 334 311 277 221 63 341 328 328 293 262 233 195 206 196 248 261 247 248 236 245 214 144 203 182 53 177 194 93 64 87 121
353 350 349 346 346 346 346 344 340 336 324 319 316 319 332 313 249 148 32 341 330 320 240 224 201 188 198 210 205 224 236 278 21 30 259 177 226 176 213 194 186 157 117 128 150
349 353 350 348 344 341 343 343 339 329 317 314 312 311 312 303 259 105 24 347 332 299 275 252 251 207 219 232 203 208 252 50 72 73 316 181 223 209 233 210 212 191 157 153 149
342 345 348 350 344 339 337 342 337 331 328 323 295 287 300 285 300 75 0 331 307 295 239 205 209 200 217 211 195 246 262 271 124 146 202 209 289 238 235 269 183 164 138 160 169
336 339 341 345 343 339 333 337 333 333 320 338 332 300 280 237 184 66 324 299 265 285 238 216 213 214 222 226 219 236 220 225 191 197 245 273 245 252 243 210 146 134 163 175 167
329 335 339 337 338 336 329 327 322 315 308 322 310 293 259 266 89 36 359 280 345 256 206 217 244 218 252 222 231 11 225 221 208 224 234 247 245 223 226 205 185 179 178 177 170
317 321 340 334 332 332 326 321 308 279 274 284 288 243 272 302 87 46 47 40 320 298 171 111 203 210 179 183 186 195 230 217 221 213 228 246 253 224 238 208 191 196 179 175 184
303 315 325 334 329 329 326 319 303 264 257 273 275 245 276 123 205 198 183 114 99 79 94 142 208 131 251 96 185 216 236 218 148 180 158 209 275 201 194 198 198 196 188 188 211
296 305 305 325 328 329 323 316 286 246 249 268 242 228 255 125 203 158 219 160 126 120 111 139 221 214 176 204 196 204 262 213 154 202 183 213 291 143 188 203 208 201 211 214 214
284 299 293 318 325 330 320 298 274 249 227 235 254 236 166 211 145 183 151 187 196 169 170 207 218 218 224 209 250 212 226 229 226 175 215 226 244 234 200 204 218 229 228 249 225
256 288 284 311 328 327 327 231 214 206 216 226 235 239 145 121 164 200 177 182 192 224 224 201 239 213 206 228 301 280 252 252 171 117 265 246 254 249 227 224 240 242 246 241 215
249 238 223 300 325 312 282 248 3 346 280 223 232 250 221 181 172 182 181 205 199 226 181 200 239 66 122 171 209 221 248 251 247 195 246 273 263 249 247 252 260 241 223 183 164
247 232 174 257 313 278 260 272 338 299 260 192 212 218 188 196 211 178 192 201 224 225 217 259 51 136 184 188 223 230 261 288 295 307 249 285 255 188 180 182 185 218 165 156 161
229 229 188 140 294 335 255 136 192 314 270 176 195 200 176 198 209 138 206 239 212 236 211 256 121 190 210 242 248 270 59 291 291 304 300 346 302 186 164 168 169 165 163 162 158
224 216 190 175 354 257 43 188 148 221 272 130 142 87 157 189 126 180 146 178 231 178 205 80 172 198 223 333 218 58 38 309 298 281 307 162 248 114 167 181 172 168 163 165 167
228 200 160 151 162 256 145 177 207 187 245 168 145 175 171 198 178 130 174 200 7 190 223 85 64 222 356 107 260 123 233 246 271 273 241 138 257 171 180 204 175 172 171 166 175
224 185 176 189 171 148 153 183 192 207 101 174 188 176 194 178 177 186 182 185 182 178 200 177 194 137 182 175 174 223 255 265 231 215 293 147 240 291 135 193 177 177 179 175 173
240 190 190 182 141 144 169 193 232 215 208 115 163 170 185 172 212 196 191 219 218 230 218 195 196 186 167 243 296 196 293 271 273 290 19 164 233 116 128 152 182 178 177 180 190
232 190 166 173 155 160 184 209 221 231 133 159 150 177 193 185 221 195 217 221 212 201 201 208 143 112 135 161 298 146 211 20 299 194 266 236 226 152 148 178 185 185 184 198 213
180 195 175 155 146 182 195 221 224 285 146 166 198 196 188 182 182 195 195 231 184 204 114 175 121 190 132 172 121 297 124 171 136 262 263 213 269 242 189 195 193 198 205 214 226
204 203 144 141 129 163 205 222 226 215 216 194 225 198 203 173 196 185 215 141 169 172 165 163 232 139 161 205 191 172 201 190 26 274 272 294 182 36 73 181 200 211 215 223 238
219 212 150 155 152 174 218 221 214 230 208 243 291 230 206 173 183 199 203 209 162 162 176 157 128 163 132 84 345 302 214 185 218 180 216 330 277 82 93 94 272 225 229 240 253
219 82 164 355 199 195 211 219 230 208 198 190 231 225 185 177 163 187 182 94 163 179 156 179 178 140 169 172 191 225 192 177 87 348 215 236 240 136 124 145 214 266 282 271 274
191 157 233 114 311 220 197 206 204 216 226 192 198 149 163 205 152 171 158 155 172 184 22 152 193 264 326 78 121 193 212 198 197 208 213 226 272 201 202 214 246 257 257 266 288
199 185 168 187 223 254 197 174 200 200 224 191 191 213 174 161 177 188 149 134 169 163 177 150 202 191 266 190 202 203 187 201 212 222 222 262 264 270 305 310 303 298 300 294 290
208 165 152 239 221 199 227 185 204 207 170 204 231 199 200 169 187 188 160 172 177 177 164 160 157 178 259 223 239 258 244 211 224 236 248 264 272 281 301 338 298 297 296 296 299
213 184 183 181 193 186 211 214 216 206 206 244 213 203 209 206 115 281 175 167 157 153 154 158 156 169 235 138 286 269 247 229 220 218 227 241 252 272 258 265 280 290 294 303 306